Regional Weather Roundup
Issued by NWS Bismarck, ND

Home | Current Version | Previous Version | Text Only | Print | Product List | Glossary On
Versions: 1 2 3 4 5 6 7 8 9 10 11 12 13 14 15 16 17 18 19 20 21 22 23 24 25 26 27 28 29 30 31 32 33 34 35 36 37 38 39 40 41 42 43 44 45 46 47 48 49 50
000
ASUS43 KBIS 051501
RWRBIS

NWR BROADCAST TEXT
NATIONAL WEATHER SERVICE BISMARCK ND
1000 AM CDT TUE MAY 05 2015

NOTE: "FAIR" INDICATES FEW OR NO CLOUDS BELOW 12,000 FEET WITH NO
SIGNIFICANT WEATHER AND/OR OBSTRUCTIONS TO VISIBILITY.


CITY           SKY/WX    TMP DP  RH WIND       PRES   REMARKS
WILLISTON      SUNNY     62  30  29 S10       29.92F
MINOT          CLOUDY    60  31  33 SE12G21   29.99F
MINOT AFB      MOSUNNY   64  33  30 S18       29.99F
BISMARCK       MOSUNNY   61  37  41 SE14      30.05F
DICKINSON      SUNNY     61  34  36 S24G33    29.94F
GARRISON         N/A     60  33  36 S15       30.00F
HETTINGER ARPT PTSUNNY   59  35  40 SE18G28   29.98F
JAMESTOWN      MOSUNNY   65  30  27 S18G25    30.12S
CARRINGTON     FAIR      63  32  31 S24G31    30.10F
HAZEN          FAIR      63  32  31 S20G26    30.01F
OAKES            N/A     64  32  29 SE16      30.13F
STANLEY        FAIR      59  32  36 S21       29.98F
$$

CITY           SKY/WX    TMP DP  RH WIND       PRES   REMARKS
GRAND FORKS    PTSUNNY   64  27  24 S16       30.16F
GRAND FORKS AF MOSUNNY   62  28  27 S17       30.15F
DEVILS LAKE    PTSUNNY   61  36  39 S20       30.10F
FARGO          SUNNY     67  23  19 SE17G26   30.15F
CAVALIER       FAIR      64  28  25 S21       30.12F
GRAFTON        FAIR      63  32  31 S15       30.16S
GWINNER        SUNNY     64  30  27 SE18      30.16F
LANGDON        PTSUNNY   63  28  27 S30       30.12S
WALHALLA       FAIR      66  30  26 S16G26    30.12F
$$

CITY           SKY/WX    TMP DP  RH WIND       PRES   REMARKS
ABERDEEN       SUNNY     67  30  25 SE16      30.11F
MOBRIDGE       MOSUNNY   65  37  35 SE23G30   30.04F
BUFFALO          N/A     60  41  49 SE17G25   29.88F
RAPID CITY     SUNNY     56  41  57 SE13      29.98F
GLASGOW        SUNNY     57  37  47 SE15      29.81F
SIDNEY         SUNNY     63  34  34 SE12      29.89F
WOLF POINT     SUNNY     60  38  43 SE6       29.85F
GLENDIVE       SUNNY     57  36  44 SE9       29.89F
MILES CITY     SUNNY     60  39  45 SE14      29.84F
BAKER          SUNNY     58  36  43 SE18      29.91F
$$

CITY           SKY/WX    TMP DP  RH WIND       PRES   REMARKS
BILLINGS       PTSUNNY   53  43  68 S3        29.82S
GREAT FALLS    SUNNY     58  32  37 VRB3      29.79R
$$



USA.gov is the U.S. government's official web portal to all federal, state and local government web resources and services.